TimeEST,TemperatureF,Dew PointF,Humidity,Sea Level PressureIn,VisibilityMPH,Wind Direction,Wind SpeedMPH,Gust SpeedMPH,PrecipitationIn,Events,Conditions,WindDirDegrees,DateUTC
12:24 AM,33.8,30.2,87,29.91,8.0,Calm,Calm,-,N/A,,Overcast,0,2013-02-06 05:24:00
12:52 AM,33.1,30.9,92,29.92,8.0,NW,3.5,-,N/A,,Overcast,320,2013-02-06 05:52:00
1:14 AM,32.0,30.2,93,29.90,9.0,Calm,Calm,-,N/A,,Overcast,0,2013-02-06 06:14:00
1:52 AM,32.0,30.9,96,29.91,8.0,NW,3.5,-,N/A,,Overcast,320,2013-02-06 06:52:00
2:52 AM,32.0,30.9,96,29.91,9.0,NW,3.5,-,N/A,,Overcast,310,2013-02-06 07:52:00
3:30 AM,32.0,30.2,93,29.90,9.0,NW,3.5,-,0.00,,Overcast,320,2013-02-06 08:30:00
3:52 AM,32.0,30.0,92,29.90,8.0,Calm,Calm,-,0.00,,Overcast,0,2013-02-06 08:52:00
4:52 AM,30.9,30.0,96,29.92,9.0,NW,3.5,-,N/A,,Overcast,320,2013-02-06 09:52:00
5:52 AM,32.0,30.0,92,29.94,10.0,Calm,Calm,-,N/A,,Overcast,0,2013-02-06 10:52:00
6:52 AM,32.0,30.9,96,29.96,10.0,Calm,Calm,-,N/A,,Overcast,0,2013-02-06 11:52:00
7:52 AM,33.1,30.9,92,29.99,6.0,Calm,Calm,-,N/A,,Overcast,0,2013-02-06 12:52:00
8:52 AM,34.0,32.0,92,30.00,10.0,West,3.5,-,N/A,,Overcast,280,2013-02-06 13:52:00
9:52 AM,35.1,28.9,78,30.01,10.0,WNW,5.8,-,N/A,,Overcast,290,2013-02-06 14:52:00
10:52 AM,35.1,30.0,82,30.02,10.0,Variable,6.9,-,N/A,,Overcast,0,2013-02-06 15:52:00
10:59 AM,35.6,30.2,81,30.01,10.0,West,6.9,-,N/A,,Overcast,280,2013-02-06 15:59:00
11:11 AM,35.6,30.2,81,30.00,10.0,WNW,6.9,-,N/A,,Overcast,300,2013-02-06 16:11:00
11:28 AM,35.6,28.4,75,30.00,10.0,Variable,5.8,-,N/A,,Overcast,0,2013-02-06 16:28:00
11:52 AM,35.1,28.0,76,30.01,10.0,WNW,6.9,-,N/A,,Overcast,300,2013-02-06 16:52:00
12:37 PM,35.6,26.6,70,30.00,10.0,WNW,6.9,-,N/A,,Overcast,300,2013-02-06 17:37:00
12:52 PM,37.0,27.0,67,30.01,10.0,Variable,4.6,-,N/A,,Scattered Clouds,0,2013-02-06 17:52:00
1:09 PM,39.2,26.6,61,29.99,10.0,Variable,3.5,-,N/A,,Mostly Cloudy,0,2013-02-06 18:09:00
1:25 PM,37.4,28.4,70,29.99,10.0,Variable,6.9,-,N/A,,Mostly Cloudy,0,2013-02-06 18:25:00
1:32 PM,37.4,30.2,75,29.99,10.0,SSW,9.2,-,N/A,,Mostly Cloudy,210,2013-02-06 18:32:00
1:52 PM,37.0,28.9,73,30.00,10.0,SW,8.1,16.1,N/A,,Mostly Cloudy,220,2013-02-06 18:52:00
2:52 PM,35.1,28.9,78,30.02,10.0,SW,3.5,-,N/A,,Mostly Cloudy,220,2013-02-06 19:52:00
3:52 PM,36.0,27.0,70,30.04,10.0,Calm,Calm,-,N/A,,Overcast,0,2013-02-06 20:52:00
4:52 PM,36.0,19.9,52,30.07,10.0,WNW,5.8,-,N/A,,Partly Cloudy,300,2013-02-06 21:52:00
5:52 PM,34.0,19.9,56,30.10,10.0,West,4.6,-,N/A,,Clear,270,2013-02-06 22:52:00
6:52 PM,30.9,19.0,61,30.14,10.0,Calm,Calm,-,N/A,,Clear,0,2013-02-06 23:52:00
7:52 PM,28.9,19.0,67,30.17,10.0,Calm,Calm,-,N/A,,Clear,0,2013-02-07 00:52:00
8:52 PM,30.9,17.1,57,30.19,10.0,WNW,6.9,-,N/A,,Clear,290,2013-02-07 01:52:00
9:52 PM,32.0,14.0,48,30.22,10.0,Variable,5.8,-,N/A,,Clear,0,2013-02-07 02:52:00
10:52 PM,30.9,12.0,46,30.25,10.0,WNW,9.2,-,N/A,,Clear,300,2013-02-07 03:52:00